EW7948 Weather Reports


time (UTC)temp
F
wind
direction
speed
knots
gust
knots
rain 1hr
in
rain 24hr
in
rain mn
in
humidity
%
barometer
mb
20260905153046 72 72 1.7 4.3 0.00 0.00 0.00 48 1007.1
20260905151550 71 74 0.9 2.6 0.00 0.00 0.00 49 1007.1
20260905150052 70 74 0.0 0.9 0.00 0.00 0.00 52 1007.1
20260905144547 69 74 0.0 1.7 0.00 0.00 0.00 54 1007.1
20260905143049 70 83 4.3 6.1 0.00 0.00 0.00 49 1006.8
20260905141532 70 209 2.6 4.3 0.00 0.00 0.00 43 1006.7
20260905140031 68 212 3.5 5.2 0.00 0.00 0.00 47 1006.3
20260905134529 66 219 2.6 3.5 0.00 0.00 0.00 50 1006.2
20260905133026 65 236 0.9 2.6 0.00 0.00 0.00 49 1006.1
20260905131538 64 238 2.6 3.5 0.00 0.00 0.00 52 1005.9
20260905130025 63 268 0.0 0.9 0.00 0.00 0.00 58 1005.7
20260905124524 63 268 0.0 0.9 0.00 0.00 0.00 61 1005.6
20260905123019 63 268 0.9 2.6 0.00 0.00 0.00 60 1005.4
20260905121518 63 268 0.0 1.7 0.00 0.00 0.00 60 1005.2
20260905120017 63 268 1.7 2.6 0.00 0.00 0.00 61 1005.4
20260905114522 64 268 0.0 5.2 0.00 0.00 0.00 60 1005.2
20260905113015 65 53 0.0 1.7 0.00 0.00 0.00 54 1005.3
20260905111510 65 53 0.9 2.6 0.00 0.00 0.00 54 1005.2
20260905110009 65 53 0.0 1.7 0.00 0.00 0.00 54 1005.2
20260905104512 66 53 0.0 0.9 0.00 0.00 0.00 52 1005.1
20260905103010 67 53 0.0 1.7 0.00 0.00 0.00 50 1005.1
20260905101503 68 53 0.0 2.6 0.00 0.00 0.00 45 1005.0
20260905100109 67 51 0.9 2.6 0.00 0.00 0.00 45 1004.8
20260905094559 68 50 0.9 2.6 0.00 0.00 0.00 45 1004.7
20260905093100 68 47 0.0 0.9 0.00 0.00 0.00 47 1004.5
20260905091604 69 47 0.0 0.0 0.00 0.00 0.00 51 1004.4
20260905090055 70 47 0.9 4.3 0.00 0.00 0.00 43 1004.4
20260905084553 71 350 1.7 4.3 0.00 0.00 0.00 44 1004.3
20260905083050 72 103 0.0 2.6 0.00 0.00 0.00 38 1004.0
20260905081552 72 103 2.6 5.2 0.00 0.00 0.00 36 1004.1
20260905080053 70 65 0.0 1.7 0.00 0.00 0.00 42 1004.0
20260905074545 70 64 0.0 3.5 0.00 0.00 0.00 46 1003.9
20260905073042 69 49 0.0 0.0 0.00 0.00 0.00 48 1003.9
20260905071541 68 49 0.0 0.0 0.00 0.00 0.00 49 1003.8
20260905070039 68 50 0.0 0.0 0.00 0.00 0.00 44 1003.3
20260905064545 69 49 0.0 1.7 0.00 0.00 0.00 46 1003.4
20260905063038 69 34 0.0 0.9 0.00 0.00 0.00 45 1003.2
20260905061532 69 34 0.0 0.0 0.00 0.00 0.00 48 1003.1
20260905060035 70 34 0.0 0.0 0.00 0.00 0.00 48 1003.0
20260905054510 71 34 0.0 3.5 0.00 0.00 0.00 44 1003.0
20260905053012 71 34 2.6 4.3 0.00 0.00 0.00 42 1003.0
20260905051503 73 360 3.5 4.3 0.00 0.00 0.00 42 1002.9
20260905050004 76 168 0.0 1.7 0.00 0.00 0.00 38 1003.0
20260905044503 78 168 0.0 0.9 0.00 0.00 0.00 33 1003.0
20260905043003 78 168 0.0 0.0 0.00 0.00 0.00 29 1003.0
20260905041502 79 168 0.0 0.0 0.00 0.00 0.00 28 1003.0
20260905040101 80 168 0.0 0.0 0.00 0.00 0.00 27 1003.0
20260905040001 80 168 0.0 0.0 0.00 0.00 0.00 27 1003.0
20260905034606 81 168 0.0 0.0 0.00 0.00 0.00 27 1003.0
20260905033103 82 168 0.0 0.0 0.00 0.00 0.00 25 1002.9
20260905031559 82 168 0.0 1.7 0.00 0.00 0.00 25 1002.8
20260905030121 83 164 0.9 2.6 0.00 0.00 0.00 25 1002.5
20260905024559 83 164 0.9 4.3 0.00 0.00 0.00 24 1002.4
20260905023058 84 176 1.7 5.2 0.00 0.00 0.00 23 1002.3
20260905021557 85 176 0.9 6.1 0.00 0.00 0.00 22 1002.2
20260905020105 86 171 1.7 9.6 0.00 0.00 0.00 21 1002.1
20260905014556 87 194 5.2 10.4 0.00 0.00 0.00 20 1002.1
20260905013054 88 183 4.3 11.3 0.00 0.00 0.00 20 1002.1
20260905011554 88 209 5.2 13.0 0.00 0.00 0.00 19 1002.1
20260905010101 89 200 3.5 12.2 0.00 0.00 0.00 19 1002.1
20260905004609 90 204 2.6 8.7 0.00 0.00 0.00 19 1002.0
20260905003052 90 163 5.2 10.4 0.00 0.00 0.00 19 1002.1
20260905001551 90 230 3.5 11.3 0.00 0.00 0.00 19 1002.0
20260905000051 91 179 5.2 12.2 0.00 0.00 0.00 19 1002.2
20260904234550 91 224 4.3 13.9 0.00 0.00 0.00 17 1002.2
20260904233053 91 225 7.8 13.0 0.00 0.00 0.00 17 1002.2
20260904231548 91 205 7.0 13.0 0.00 0.00 0.00 17 1002.3
20260904230149 91 213 7.8 13.0 0.00 0.00 0.00 17 1002.3
20260904224550 92 157 5.2 17.4 0.00 0.00 0.00 18 1002.4
20260904223046 92 198 6.1 16.5 0.00 0.00 0.00 18 1002.5
20260904221549 92 211 6.1 14.8 0.00 0.00 0.00 17 1002.5
20260904220046 91 193 9.6 19.1 0.00 0.00 0.00 17 1002.6
20260904214544 92 158 7.0 16.5 0.00 0.00 0.00 16 1002.8
20260904213044 91 182 8.7 17.4 0.00 0.00 0.00 16 1003.0
20260904211542 92 186 8.7 15.6 0.00 0.00 0.00 16 1003.0
20260904210049 91 226 8.7 21.7 0.00 0.00 0.00 18 1003.2
20260904204540 91 188 9.6 15.6 0.00 0.00 0.00 20 1003.3
20260904203040 91 205 9.6 15.6 0.00 0.00 0.00 19 1003.3
20260904201538 90 185 10.4 18.2 0.00 0.00 0.00 19 1003.5
20260904200035 90 264 4.3 20.0 0.00 0.00 0.00 20 1003.6
20260904194533 90 234 6.1 18.2 0.00 0.00 0.00 21 1003.9
20260904193033 90 213 9.6 17.4 0.00 0.00 0.00 21 1003.9
20260904191529 89 237 7.0 20.9 0.00 0.00 0.00 24 1003.8
20260904190029 89 205 6.1 14.8 0.00 0.00 0.00 26 1004.1
20260904184527 88 182 7.0 13.0 0.00 0.00 0.00 26 1004.4
20260904183028 88 218 9.6 17.4 0.00 0.00 0.00 27 1004.6
20260904181524 88 204 8.7 16.5 0.00 0.00 0.00 26 1004.7
20260904180022 87 170 7.8 17.4 0.00 0.00 0.00 29 1004.7
20260904174520 87 186 7.0 17.4 0.00 0.00 0.00 29 1005.0
20260904173017 86 178 2.6 13.0 0.00 0.00 0.00 32 1005.0
20260904171514 85 171 8.7 18.2 0.00 0.00 0.00 33 1005.0
20260904170017 85 168 9.6 14.8 0.00 0.00 0.00 33 1005.1
20260904164512 85 176 4.3 13.0 0.00 0.00 0.00 35 1005.1
20260904163009 84 165 2.6 7.0 0.00 0.00 0.00 34 1005.1
20260904161506 82 118 0.0 5.2 0.00 0.00 0.00 35 1005.2
20260904160008 82 205 0.0 5.2 0.00 0.00 0.00 35 1005.3
20260904154501 81 171 1.7 6.1 0.00 0.00 0.00 36 1005.4